User: anonymous   Login
Location: Maddington
(51.2000°N, 1.9167°W)
Time: 20:50:19
(UTC+00:00)
Language:

Iridium 4 Rocket - Orbit

View from above orbital plane
View from above orbital plane
View from above satellite
View from above satellite

Ground track
Ground track

The orbit data is extracted from the following two-line orbital elements,

1 24797U 97020F   20331.88995632 +.00000223 +00000-0 +41184-4 0  9995
2 24797 086.8976 252.2891 0227201 080.0696 323.4837 14.44201692239565
Epoch (UTC): 26 November 2020 21:21:32
Eccentricity: 0.0227201
inclination: 86.8976°
perigee height: 583 km
apogee height: 906 km
right ascension of ascending node: 252.2891°
argument of perigee: 80.0696°
revolutions per day: 14.44201692
mean anomaly at epoch: 323.4837°
orbit number at epoch: 23956

The dashed part of the orbit path shows where the satellite is in the earth's shadow,  

DLR